Orbital Elements at Epoch 2459200.5 (2020-Dec-17.0) TDB
Reference: JPL 22 (heliocentric ecliptic J2000)
Element | Value | Uncertainty (1-sigma) | Units |
e | .121804817913927 | 4.552e-08 | |
a | 3.102684838655668 | 2.4523e-08 | au |
q | 2.724762876838912 | 1.3632e-07 | au |
i | 16.77882604289923 | 5.0178e-06 | deg |
node | 227.2463894645809 | 1.4887e-05 | deg |
peri | 206.9216785695112 | 2.4271e-05 | deg |
M | 186.9219775206262 | 2.1765e-05 | deg |
tp | 2460160.219559134342 (2023-Aug-03.71955913) | 0.00012674 | TDB |
period | 1996.204002905899 5.47 | 2.3667e-05 6.48e-08 | d yr |
n | .1803422894032592 | 2.1381e-09 | deg/d |
Q | 3.480606800472423 | 2.751e-08 | au |
|
| | Orbit Determination Parameters
Additional Information
|